Content
SEND FEEDBACK

Daily
Averages
Monthly
Summary
United States of America

SMITHTON, MISSOURI


Home > North America > United States > Missouri
Elevation: 808 feet     Latitude: 38 40N     Longitude: 093 13W

WEATHER
 
SELECT A DAY
Number of Records: 186,497;   Date Range: 7/1/96 - 9/22/14
 
SHARE

PRINT THIS DATA

[ ← Previous Day ]
WEATHER ALMANAC - JANUARY 31, 2013
[ Next Day → ]
[ °C ]   °F
Weather ElementAverageHighLow
Temperature21.8 °F28 °F (9:53 am)10.9 °F (11:53 pm)
Dewpoint11.4 °F19.9 °F (7:53 am)-0.9 °F (8:53 pm)
Humidity64.5 %75 % (3:53 am)46 % (12:53 pm)
Barometer30.18 in30.51 in (10:53 pm)29.98 in (1:10 am)
Wind Speed12.2 mph20.7 mph (12:53 pm)
Wind Gust31.1 mph (11:53 am)
Weather ElementAverage
Visibility10 mi
Wind DirectionWNW (287.8 °)

Weather ElementTotal
Precipitation---
Heating Degree Days45.6 (Base 65)
Averaged from 23 records on January 31, 2013
WEATHER CONDITIONS BREAKOUT
WIND DIRECTION BREAKOUT
WEATHER BY HOUR - JANUARY 31, 2013
[ °C ]   °F
Local TimeTemperatureDewpointHumidityBarometerVisibilityWind DirectionWind SpeedGust SpeedPrecipitationEventsConditions
12:53 AM25.0 °F15.1 °F66 %30.01 in10.0 miWest (270°)11.5 mphOvercast
1:10 AM24.8 °F15.8 °F69 %29.98 in10.0 miWest (260°)8.1 mphScattered Clouds
1:53 AM24.1 °F15.1 °F69 %30.01 in10.0 miWSW (240°)5.8 mphMostly Cloudy
2:53 AM25.0 °F16.0 °F69 %30.00 in10.0 miWSW (240°)6.9 mphOvercast
3:53 AM25.0 °F18.0 °F75 %29.99 in10.0 miWSW (240°)10.4 mphOvercast
4:53 AM26.1 °F17.1 °F69 %29.99 in10.0 miWSW (250°)8.1 mphOvercast
5:53 AM26.1 °F18.0 °F71 %29.99 in10.0 miWest (260°)8.1 mphOvercast
6:53 AM26.1 °F19.0 °F75 %30.01 in10.0 miWSW (250°)5.8 mphOvercast
7:53 AM27.0 °F19.9 °F75 %30.05 in10.0 miWest (280°)8.1 mphOvercast
8:53 AM27.0 °F19.0 °F72 %30.09 in10.0 miWNW (300°)12.7 mphOvercast
9:53 AM28.0 °F19.0 °F69 %30.09 in10.0 miWNW (290°)9.2 mphPartly Cloudy
10:53 AM28.0 °F18.0 °F66 %30.13 in10.0 miNW (320°)11.5 mphOvercast
11:53 AM26.1 °F12.9 °F58 %30.15 in10.0 miNW (310°)19.6 mph31.1 mphOvercast
12:53 PM25.0 °F7.0 °F46 %30.18 in10.0 miWNW (300°)20.7 mph29.9 mphOvercast
2:53 PM23.0 °F9.0 °F55 %30.25 in10.0 miNW (320°)20.7 mph29.9 mphOvercast
3:53 PM19.9 °F7.0 °F57 %30.28 in10.0 miNW (320°)18.4 mph28.8 mphScattered Clouds
4:53 PM17.1 °F6.1 °F62 %30.31 in10.0 miNW (310°)16.1 mph24.2 mphClear
5:53 PM16.0 °F5.0 °F62 %30.34 in10.0 miNW (310°)13.8 mph20.7 mphClear
6:53 PM14.0 °F3.0 °F62 %30.39 in10.0 miNW (310°)18.4 mph25.3 mphClear
7:53 PM12.9 °F1.0 °F59 %30.43 in10.0 miNW (320°)12.7 mphPartly Cloudy
8:53 PM12.0 °F-0.9 °F56 %30.45 in10.0 miNW (310°)13.8 mphClear
10:53 PM12.0 °F1.0 °F61 %30.51 in10.0 miWNW (290°)9.2 mphClear
11:53 PM10.9 °F0.0 °F61 %30.50 in10.0 miNW (320°)11.5 mphClear
Hourly data recorded from KDMO, located miles away from Smithton, Missouri







STORIES FROM OUR PARTNERS